Miscellaneous Local Product
Issued by NWS North Platte, NE

Home | Current Version | Previous Version | Graphics & Text | Print | Product List | Glossary On
Versions: 1 2 3 4 5 6 7 8 9 10 11 12 13 14 15 16 17 18 19 20 21 22 23 24 25 26 27 28 29 30 31 32 33 34 35 36 37 38 39 40 41 42 43 44 45 46 47 48 49 50
000
AXUS43 KLBF 290710
MISLBF


WESTERN AND NORTH CENTRAL NEBRASKA HOURLY WEATHER ROUNDUP
NATIONAL WEATHER SERVICE NORTH PLATTE NE
200 AM CDT WED OCT 29 2014

***STATIONS NOT REPORTING VARIABLES SUCH AS SKY/WEATHER OR
PRESSURE ARE PROVIDED BY THE NEBRASKA DEPARTMENT OF
ROADS...RAWS...AND APRS NETWORKS...AND ARE NOT UNDER
NATIONAL WEATHER SERVICE QUALITY CONTROL***

...OBSERVATIONS IN AND NEAR THE EASTERN PANHANDLE OF NEBRASKA...

CITY           SKY/WX    TMP DP  RH WIND       PRES   REMARKS
PINE RIDGE     CLEAR     18  14  84 E3        30.16F
CHADRON        CLEAR     21  17  84 W5        30.16F WCI  15
ALLIANCE       CLEAR     25  20  81 CALM      30.16S
SIDNEY         CLEAR     26  20  77 SW7       30.19S WCI  18
WHITECLAY        N/A     22  17  79 SE8         N/A  WCI  13
RUSHVILLE        N/A     18  14  86 E5          N/A  WCI  11
CRESCENT LAKE    N/A     34  30  86 CALM        N/A
LISCO            N/A     30  24  79 CALM        N/A
BIG SPRINGS      N/A     28  23  81 CALM        N/A
LEWELLEN         N/A     25  20  80 CALM        N/A
$$

...OBSERVATIONS IN NORTH CENTRAL NEBRASKA...

CITY           SKY/WX    TMP DP  RH WIND       PRES   REMARKS
VALENTINE      CLEAR     23  20  88 SW8       30.19S WCI  14
THEDFORD       CLEAR     26  18  73 CALM      30.20S
AINSWORTH      CLEAR     25  21  84 SW3       30.19R
O`NEILL        CLEAR     30  27  88 W6        30.19S WCI  24
ORD            CLEAR     24  20  84 NW3       30.20R
BROKEN BOW     CLEAR     24  18  77 CALM      30.19S
BROWNLEE         N/A     32  21  63 CALM        N/A
SPRINGVIEW       N/A     24  21  88 CALM        N/A
BREWSTER         N/A     28  24  86 NW3         N/A
ROSE             N/A     35  28  75 CALM        N/A
NEWPORT          N/A     27  26  96 W3          N/A
SARGENT          N/A     25  21  83 CALM        N/A
COMSTOCK         N/A     35  25  67 CALM        N/A
CHAMBERS         N/A     26  19  74 CALM        N/A
$$

...OBSERVATIONS IN SOUTHWEST NEBRASKA AND FAR NORTHEAST COLORADO...

CITY           SKY/WX    TMP DP  RH WIND       PRES   REMARKS
WRAY           FAIR      40  23  52 S5        30.20S
HOLYOKE        FAIR      32  27  80 CALM      30.19S
IMPERIAL       CLEAR     28  21  75 CALM      30.20S
OGALLALA       CLEAR     26  21  82 W5        30.19S WCI  20
NORTH PLATTE   CLEAR     25  20  81 CALM      30.21S
MCCOOK         CLEAR     30  24  78 SW3       30.22R
LEXINGTON      CLEAR     26  22  84 W3        30.21S
PAXTON           N/A     26  20  77 CALM        N/A
SUTHERLAND       N/A     25  20  80 CALM        N/A
BRADY            N/A     27  19  72 CALM        N/A
GOTHENBURG       N/A     34  22  61 CALM        N/A
CALLAWAY         N/A     26  20  79 CALM        N/A
$$

...SOME WEATHER OBSERVATIONS FROM AROUND THE REGION...

CITY           SKY/WX    TMP DP  RH WIND       PRES   REMARKS
DENVER         CLEAR     41  23  48 SW12      30.18F
LARAMIE        CLEAR     36  11  35 SW15      30.20F WCI  27
CHEYENNE       CLEAR     33  19  56 W10       30.19F WCI  25
SCOTTSBLUFF    CLEAR     31  27  85 E7        30.16S WCI  24
RAPID CITY     CLEAR     29  20  69 S6        30.13F WCI  23
PIERRE         PTCLDY    27  23  85 SW7       30.17S WCI  19
WINNER         FAIR      31  24  75 SW7       30.19R WCI  24
SIOUX FALLS    CLOUDY    42  31  64 NW13      30.13S
OMAHA          CLEAR     41  31  67 W6        30.19R
GRAND ISLAND   CLEAR     32  26  78 W8        30.21S WCI  25
KANSAS CITY    CLEAR     45  32  60 N7        30.16R
WICHITA        PTCLDY    46  35  65 CALM      30.19S
HAYS           CLEAR     37  27  65 N5        30.21R WCI  34
LIBERAL        CLEAR     41  27  56 S5        30.23R
GOODLAND       CLEAR     31  22  69 S6        30.22S WCI  25
$$



USA.gov is the U.S. government's official web portal to all federal, state and local government web resources and services.